Regional Weather Roundup
Issued by NWS

Home | Current Version | Previous Version | Graphics & Text | Print | Product List | Glossary On
Versions: 1 2 3 4 5 6 7 8 9 10 11 12 13 14 15 16 17 18 19 20 21 22 23 24 25 26 27 28 29 30 31 32 33 34 35 36 37 38 39 40 41 42 43 44 45 46 47 48 49 50
000
ASUS45 KCYS 302210
RWRWY

WYOMING REGIONAL WEATHER ROUNDUP
NATIONAL WEATHER SERVICE CHEYENNE WY
400 PM MDT SUN AUG 30 2015

NOTE:  "FAIR" INDICATES FEW OR NO CLOUDS BELOW 12,000 FEET
WITH NO SIGNIFICANT WEATHER AND/OR OBSTRUCTIONS TO VISIBILITY.

WYZ001-302300-
YELLOWSTONE NATIONAL PARK

CITY           SKY/WX    TMP DP  RH WIND       PRES   REMARKS
LK YELLOWSTONE   N/A     66  39  37 MISG      30.16F
W YELLOWSTONE  NOT AVBL

$$
WYZ002>013-054>058-071-098>099-302300-
NORTHERN WYOMING

CITY           SKY/WX    TMP DP  RH WIND       PRES   REMARKS
JACKSON        PTSUNNY   73  41  31 S16       30.06F
CODY           FAIR      82  45  26 CALM      29.87F
GREYBULL       FAIR      89  42  19 N8        29.78F
WORLAND        FAIR      89  48  24 NE6       29.79F
SHERIDAN       FAIR      84  48  28 CALM      29.85F
BUFFALO        FAIR      79  48  33 N10       29.92F
GILLETTE       FAIR      90  44  20 N12       29.83S
HULETT         FAIR      88  45  22 N12       29.86R
NEWCASTLE      FAIR      93  36  13 SE3       29.83F

$$
WYZ014>020-022>026-101>103-302300-
CENTRAL WYOMING

CITY           SKY/WX    TMP DP  RH WIND       PRES   REMARKS
BIG PINEY      FAIR      82  34  17 W26G39    30.11S
PINEDALE       FAIR      79  32  18 SW15G29   30.11S
DUBOIS         FAIR      75  32  20 W25G31    30.06F
LANDER         FAIR      80  41  24 S26G44    29.94S
RIVERTON       FAIR      86  37  17 SW15      29.94S
CASPER         FAIR      87  37  17 W23       29.96F
DOUGLAS        FAIR      90  40  17 NW7       29.92S

$$
WYZ021-027>030-104>119-302300-
SOUTHERN WYOMING

CITY           SKY/WX    TMP DP  RH WIND       PRES   REMARKS
EVANSTON       TSTM      71  40  32 SW22G46   30.14S
KEMMERER       FAIR      81  32  17 W30G40    30.12F
FORT BRIDGER   CLEAR     79  39  24 W13       30.14F
ROCK SPRINGS   FAIR      69  53  56 S12       30.12F
DIXON          FAIR      84  37  18 SW18      30.15F
RAWLINS        FAIR      81  37  20 S21G28    30.12F
SARATOGA       MOCLDY    73  37  27 W9        30.18F
LARAMIE        FAIR      84  36  18 NE7       30.14F
CHEYENNE       FAIR      88  35  15 SW10      30.04F
TORRINGTON     FAIR      98  40  13 SE13G20   29.85F HX  93
PINE BLUFFS    FAIR      95  34  11 S9G16     29.97F HX  90

$$


USA.gov is the U.S. government's official web portal to all federal, state and local government web resources and services.